Anula, Australia

2:15 PM ACST on August 17, 2017 (GMT +0930)
Anula

Weather History for 94120 - July, 2013

Change the Weather History Date:

Saturday, July 6, 2013

  Actual Average Record
Temperature  
Mean Temperature 79 °F -  
Max Temperature 90 °F 87 °F - ()
Min Temperature 68 °F 67 °F - ()
Cooling Degree Days 14    
Growing Degree Days 29 (Base 50)    
Moisture  
Dew Point 65 °F    
Average Humidity 66    
Maximum Humidity 94    
Minimum Humidity 20    
Precipitation  
Precipitation 0.00 in 0.00 in - ()
Sea Level Pressure  
Sea Level Pressure 29.89 in    
Wind  
Wind Speed 7 mph ()    
Max Wind Speed 17 mph    
Max Gust Speed -    
Visibility 7.9 miles    
Events Fog    
T = Trace of Precipitation, MM = Missing Value Source: Averaged Metar Reports

Daily Weather History Graph

Daily Weather History Graph

Search for Another Location

Airport or City:

Trip Planner

Search our weather history database for the weather conditions in past years. The results will help you decide how hot, cold, wet, or windy it might be!

Date:

Astronomy

Jul. 06, 2013 Rise Set
Actual Time 7:08 AM ACST 6:33 PM ACST
Civil Twilight 6:45 AM ACST 6:56 PM ACST
Nautical Twilight 6:19 AM ACST 7:23 PM ACST
Astronomical Twilight 5:53 AM ACST 7:49 PM ACST
Moon 5:13 AM ACST (7/6) 4:58 PM ACST (7/6)
Length of Visible Light 12h 11m
Length of Day
11h 25m
Waning Crescent, 4% of the Moon is Illuminated
Jul 6
Waning Crescent
Jul 8
New
Jul 16
First Quarter
Jul 23
Full
Jul 30
Last Quarter

Hourly Weather History & Observations

Time (ACST) Temp. Heat Index Dew Point Humidity Pressure Visibility Wind Dir Wind Speed Gust Speed Precip Events Conditions
12:00 AM 74 °F - 71 °F 86% 29.91 in 9 mi South 6.9 mph - -   Smoke
12:00 AM 73.4 °F - 69.8 °F 88% 29.92 in - South 6.9 mph - N/A   Clear
12:30 AM 74 °F - 69 °F 81% 29.91 in - South 5.8 mph - -  
12:30 AM 73.4 °F - 69.8 °F 88% 29.92 in - South 5.8 mph - N/A   Clear
1:00 AM 71.6 °F - 69.8 °F 94% 29.92 in - ENE 6.9 mph - N/A   Clear
1:30 AM 71.6 °F - 68.0 °F 88% 29.92 in - East 4.6 mph - N/A   Clear
2:00 AM 71.6 °F - 68.0 °F 88% 29.89 in - ESE 5.8 mph - N/A   Clear
2:30 AM 71.6 °F - 68.0 °F 88% 29.89 in - SE 5.8 mph - N/A   Clear
3:00 AM 70 °F - 67 °F 89% 29.90 in 7 mi ESE 4.6 mph - -   Smoke
3:00 AM 69.8 °F - 68.0 °F 94% 29.89 in - ESE 4.6 mph - N/A   Clear
3:30 AM 69 °F - 67 °F 90% 29.90 in - SSE 3.5 mph - -  
3:30 AM 69.8 °F - 66.2 °F 88% 29.89 in - SSE 3.5 mph - N/A   Clear
4:00 AM 68.0 °F - 66.2 °F 94% 29.89 in - SE 3.5 mph - N/A   Clear
4:30 AM 68.0 °F - 66.2 °F 94% 29.89 in - SE 4.6 mph - N/A   Clear
5:00 AM 68.0 °F - 66.2 °F 94% 29.89 in 5.6 mi SE 3.5 mph - N/A   Clear
5:30 AM 71.6 °F - 68.0 °F 88% 29.89 in - SE 5.8 mph - N/A   Clear
6:00 AM 71 °F - 67 °F 84% 29.90 in 7 mi South 6.9 mph - -   Haze
6:00 AM 71.6 °F - 68.0 °F 88% 29.89 in - South 6.9 mph - N/A   Clear
6:30 AM 69 °F - 66 °F 89% 29.90 in - SE 5.8 mph - -  
6:30 AM 68.0 °F - 66.2 °F 94% 29.89 in - SE 5.8 mph - N/A   Clear
6:47 AM 68.0 °F - 66.2 °F 94% 29.89 in 5.6 mi SE 5.8 mph - N/A Fog Patches of Fog
7:00 AM 68.0 °F - 66.2 °F 94% 29.89 in 5.6 mi SSE 5.8 mph - N/A Fog Patches of Fog
7:24 AM 68.0 °F - 66.2 °F 94% 29.89 in 5.0 mi SE 5.8 mph - N/A   Partly Cloudy
7:30 AM 68.0 °F - 66.2 °F 94% 29.92 in 5.0 mi SE 5.8 mph - N/A   Partly Cloudy
8:00 AM 71.6 °F - 68.0 °F 88% 29.92 in 5.0 mi ESE 5.8 mph - N/A   Partly Cloudy
8:30 AM 75.2 °F - 69.8 °F 83% 29.92 in - East 5.8 mph - N/A   Clear
9:00 AM 78 °F - 68 °F 65% 29.94 in 12 mi East 8.1 mph - -   Haze
9:00 AM 78.8 °F - 68.0 °F 69% 29.95 in - East 8.1 mph - N/A   Clear
9:30 AM 78.8 °F - 66.2 °F 65% 29.95 in 6.2 mi ENE 9.2 mph - N/A   Partly Cloudy
10:00 AM 80.6 °F 82.3 °F 64.4 °F 58% 29.95 in 6.2 mi ENE 12.7 mph - N/A   Partly Cloudy
10:30 AM 80.6 °F 81.8 °F 62.6 °F 54% 29.95 in - East 12.7 mph - N/A   Clear
11:00 AM 82.4 °F 82.9 °F 60.8 °F 48% 29.92 in - East 12.7 mph - N/A   Clear
11:30 AM 86.0 °F 85.4 °F 59.0 °F 40% 29.92 in 6.2 mi SE 16.1 mph - N/A   Partly Cloudy
12:00 PM 86 °F - 58 °F 28% 29.92 in - ESE 16.1 mph - -  
12:00 PM 86.0 °F 84.9 °F 57.2 °F 37% 29.92 in 6.2 mi ESE 16.1 mph - N/A   Partly Cloudy
12:30 PM 87 °F - 56 °F 25% 29.91 in - SE 15.0 mph - -  
12:30 PM 86.0 °F 84.9 °F 57.2 °F 37% 29.89 in 6.2 mi SE 15.0 mph - N/A   Partly Cloudy
1:00 PM 87.8 °F 86.5 °F 57.2 °F 35% 29.89 in 6.2 mi East 17.3 mph - N/A   Partly Cloudy
1:30 PM 87.8 °F 86.5 °F 57.2 °F 35% 29.86 in 6.2 mi SE 15.0 mph - N/A   Partly Cloudy
2:00 PM 87.8 °F 86.5 °F 57.2 °F 35% 29.86 in 6.2 mi ESE 17.3 mph - N/A   Partly Cloudy
2:30 PM 87.8 °F 87.1 °F 59.0 °F 38% 29.83 in - ESE 15.0 mph - N/A   Clear
3:00 PM 90 °F - 56 °F 22% 29.83 in 19 mi East 12.7 mph - -   Smoke
3:00 PM 89.6 °F 88.1 °F 57.2 °F 33% 29.83 in - East 12.7 mph - N/A   Clear
3:30 PM 90 °F - 54 °F 20% 29.83 in - NNW 8.1 mph - -  
3:30 PM 89.6 °F 87.3 °F 53.6 °F 29% 29.83 in - NNW 8.1 mph - N/A   Clear
4:00 PM 87.8 °F 88.5 °F 62.6 °F 43% 29.83 in - NW 12.7 mph - N/A   Clear
4:30 PM 84.2 °F 86.6 °F 66.2 °F 55% 29.83 in - NNW 11.5 mph - N/A   Clear
5:00 PM 84.2 °F 86.6 °F 66.2 °F 55% 29.83 in - NNW 11.5 mph - N/A   Clear
5:30 PM 84.2 °F 86.6 °F 66.2 °F 55% 29.83 in - NNW 10.4 mph - N/A   Clear
6:00 PM 84 °F - 67 °F 47% 29.84 in 19 mi NNW 6.9 mph - -   Smoke
6:00 PM 84.2 °F 86.6 °F 66.2 °F 55% 29.83 in - NNW 6.9 mph - N/A   Clear
6:30 PM 83 °F - 65 °F 45% 29.85 in - North 8.1 mph - -  
6:30 PM 82.4 °F 83.9 °F 64.4 °F 54% 29.83 in - North 8.1 mph - N/A   Clear
7:00 PM 82.4 °F 83.9 °F 64.4 °F 54% 29.86 in - NNE 9.2 mph - N/A   Clear
7:30 PM 80.6 °F 82.7 °F 66.2 °F 61% 29.86 in - NE 10.4 mph - N/A   Clear
8:00 PM 80.6 °F 82.7 °F 66.2 °F 61% 29.86 in - NE 6.9 mph - N/A   Clear
8:30 PM 80.6 °F 82.7 °F 66.2 °F 61% 29.89 in - East 5.8 mph - N/A   Clear
9:00 PM 80 °F - 65 °F 51% 29.90 in 12 mi ESE 5.8 mph - -   Smoke
9:00 PM 80.6 °F 82.3 °F 64.4 °F 58% 29.89 in - ESE 5.8 mph - N/A   Clear
9:30 PM 80 °F - 66 °F 54% 29.91 in - SE 5.8 mph - -  
9:30 PM 80.6 °F 82.7 °F 66.2 °F 61% 29.89 in - SE 5.8 mph - N/A   Clear
10:00 PM 78.8 °F - 69.8 °F 74% 29.92 in - South 6.9 mph - N/A   Clear
10:30 PM 77.0 °F - 69.8 °F 78% 29.92 in - South 5.8 mph - N/A   Clear
11:00 PM 77.0 °F - 69.8 °F 78% 29.92 in - South 6.9 mph - N/A   Clear
11:30 PM 77.0 °F - 71.6 °F 83% 29.92 in - South 8.1 mph - N/A   Clear